Terug naar catalogus

FENGYUN 1C DEB

ActiefSSO
NORAD 35089·DEBRIS·🇨🇳 China

Gelanceerd May 10, 1999 vanaf Taiyuan Satellite Launch Center

Loading…

Volgende Passages (komende 24 uur)

TLE

VersSource: Space-Track

Epoch: Sep 14, 2026, 23:10 UTC

1 35089U 99025DJR 26257.96555149  .00000758  00000-0  37386-3 0  9996
2 35089  98.5566 263.6667 0027072 345.4344  14.6050 14.20141199647956

Volg FENGYUN 1C DEB in realtime met AllMySat

Download on the App Store